Location: Boden
(47.2611°N, 10.0811°E)
Time: 18:24:24
(UTC+00:00)

Daily predictions for brighter satellites

Satellite Brightness Start Highest point End
(mag) Time Altitude Azimuth Time Altitude Azimuth Time Altitude Azimuth
Cosmos 1943 Rocket 4.5 16:34:25 10° W 16:38:05 18° NW 16:41:47 10° N
YAOGAN 6 2.9 16:36:14 10° S 16:39:53 75° WSW 16:43:36 10° NNW
Cosmos 2219 3.5 16:36:02 10° NNW 16:41:38 50° ENE 16:47:13 10° SE
BREEZE-M R/B 3.3 16:44:00 10° W 16:47:16 63° N 16:53:34 10° E
ATLAS 5 CENTAUR R/B 3.8 16:45:46 10° WNW 16:48:48 18° NNW 16:52:07 10° NNE
COSMO-SKYMED 1 3.5 16:45:52 10° NE 16:49:39 28° E 16:53:24 10° SSE
H-2A R/B 2.6 16:45:42 10° N 16:49:48 60° WNW 16:53:50 10° SSW
Cosmos 44 3.2 16:46:21 10° SSW 16:50:49 72° SE 16:55:36 10° NE
H-2A R/B 3.4 16:51:51 10° ESE 16:55:49 21° ENE 16:59:48 10° NNE
NOSS 2-2 (D) 4.5 16:51:27 10° NW 16:56:55 78° NE 17:04:34 10° SE
Cosmos 1825 Rocket 3.8 16:53:14 10° NNW 16:57:41 76° W 17:02:05 10° S
Cosmos 1656 4.1 16:55:59 10° S 17:01:10 41° ESE 17:06:26 10° NE
CZ-4B R/B 4.0 16:57:08 10° S 17:02:39 59° WSW 17:08:07 10° NNW
Cosmos 1939 Rocket 3.0 16:59:24 10° SE 17:03:11 46° ENE 17:06:57 10° N
USA 307 3.3 16:59:48 10° NW 17:03:59 47° NNE 17:07:24 14° E
YAOGAN 1 3.5 17:00:34 10° ESE 17:04:10 26° ENE 17:07:47 10° N
SeaSat 1 3.9 17:03:40 13° ENE 17:06:16 19° NE 17:09:37 10° N
Okean O Rocket 2.5 17:02:19 10° S 17:06:36 53° W 17:10:52 10° NNW
Cosmos 1331 Rocket 4.3 17:03:24 10° SSW 17:08:33 72° WNW 17:13:43 10° NNE
USA 308 3.3 17:04:43 10° NW 17:08:55 49° NNE 17:12:08 16° E
Cosmos 1408 3.7 17:06:34 10° NNE 17:09:35 24° ENE 17:12:36 10° SE
Timation 2 Rocket 4.4 17:03:36 10° NNW 17:10:13 77° WSW 17:17:01 10° SSE
USA 215 4.1 17:07:14 12° ENE 17:12:45 38° N 17:18:41 10° WNW
Cosmos 1726 Rocket 3.6 17:09:02 10° S 17:13:23 85° WNW 17:17:48 10° N
Cosmos 2227 Rocket 2.2 17:08:34 10° NNW 17:14:13 66° ENE 17:19:50 10° SE
Helios 1A Rocket 3.2 17:11:31 10° SE 17:15:26 45° ENE 17:19:22 10° N
Cosmos 1892 3.0 17:11:51 10° N 17:15:35 42° ENE 17:19:17 10° SSE
Cosmos 2228 3.6 17:12:20 10° SSW 17:16:31 59° WNW 17:20:47 10° N
ATLAS 2AS CENTAUR R/B 3.8 17:10:41 10° NW 17:17:22 31° NNE 17:22:02 16° ENE
Cosmos 2263 Rocket 3.7 17:13:47 10° N 17:17:32 17° NE 17:19:27 15° ENE
Aureole 3 Rocket 3.2 17:13:54 10° S 17:17:54 65° E 17:23:31 10° NNE
CSL-04 Rocket 4.4 17:13:09 10° ESE 17:17:56 31° ENE 17:22:43 10° N
Cosmos 1400 Rocket 2.8 17:14:13 10° S 17:18:18 69° E 17:22:22 10° NNE
MOS 1 Rocket 4.4 17:15:31 10° NE 17:19:16 23° E 17:23:08 10° SE
Cosmos 292 Rocket 4.1 17:16:07 10° SSW 17:20:54 69° WNW 17:25:44 10° NNE
IRS-1C Rocket 4.0 17:16:41 10° SSE 17:21:57 78° ENE 17:27:14 10° NNW
Cosmos 968 Rocket 3.4 17:18:34 10° NNW 17:23:47 64° ENE 17:28:54 10° SSE
Cosmos 1553 Rocket 4.0 17:18:44 10° S 17:24:56 60° E 17:31:07 10° NNE
Cosmos 1300 3.4 17:22:56 10° SSW 17:26:41 55° WNW 17:30:27 10° N
FALCON 9 DEB 3.1 17:24:40 10° WSW 17:27:54 66° NNW 17:29:34 25° NE
Lacrosse 5 3.2 17:24:56 10° WNW 17:29:14 27° N 17:32:14 16° NE
CZ-4 R/B 1.4 17:25:30 10° SSE 17:29:15 49° ENE 17:32:59 10° N
Cosmos 1697 Rocket 3.1 17:24:54 10° S 17:30:01 38° ESE 17:34:45 12° NE
FALCON 9 DEB 3.2 17:27:50 10° WSW 17:31:00 60° NNW 17:32:31 27° NE
Cosmos 2058 3.0 17:28:39 10° N 17:32:39 48° ENE 17:36:36 10° SSE
Cosmos 1825 2.9 17:30:36 10° N 17:33:59 30° ENE 17:34:21 29° E
PSLV R/B 3.9 17:29:51 10° NNE 17:34:02 65° ESE 17:38:07 10° S
SAR-Lupe-4 3.7 17:30:44 10° N 17:34:19 74° WNW 17:37:52 10° SSW
Meteor 2-1 Rocket 4.4 17:29:16 10° SSE 17:34:27 44° E 17:39:40 10° NNE
ERBS 4.4 17:34:22 10° NW 17:36:31 16° N 17:37:25 15° NNE
Meteor 2-15 4.4 17:31:13 10° S 17:37:13 59° E 17:43:15 10° NNE
CZ-2D R/B 3.1 17:33:30 10° SSE 17:37:19 82° ENE 17:41:08 10° N
SKYMED 2 3.5 17:33:32 10° NNE 17:37:55 87° ESE 17:42:15 10° SSW
Cosmos 44 Rocket 4.3 17:34:09 10° SSE 17:38:02 25° ESE 17:38:24 25° ESE
ERS-2 3.7 17:34:48 10° N 17:38:10 36° WNW 17:41:32 10° SW
FALCON 9 DEB 3.9 17:36:52 10° NW 17:40:06 38° NNE 17:40:54 32° NE
Cosmos 1302 Rocket 4.2 17:35:05 10° SSW 17:40:21 73° WNW 17:45:40 10° NNE
SL-4 R/B 2.2 17:38:10 10° WNW 17:41:39 47° NNE 17:42:47 34° ENE
Okean-O 2.5 17:37:26 10° SSE 17:41:52 76° ENE 17:46:18 10° N
Cosmos 220 Rocket 4.1 17:37:44 10° S 17:41:57 51° ESE 17:45:06 17° NE
Cosmos 1346 Rocket 2.7 17:38:25 10° N 17:42:24 66° ENE 17:46:22 10° SSE
FALCON 9 DEB 3.5 17:41:12 10° W 17:44:24 52° NNW 17:45:25 35° NE
SL-08 R/B 4.5 17:39:26 10° N 17:45:38 87° W 17:51:45 10° S
Cosmos 1340 3.5 17:42:11 10° NNW 17:45:53 53° W 17:49:34 10° S
Cosmos 1486 Rocket 4.1 17:43:29 10° NNW 17:48:51 79° WSW 17:54:09 10° SSE
Cosmos 1745 Rocket 3.9 17:44:12 10° N 17:50:31 76° E 17:56:52 10° SSE
Cosmos 1315 Rocket 2.8 17:46:55 10° S 17:50:46 54° E 17:54:02 14° NNE
Cosmos 1689 Rocket 2.8 17:50:04 10° N 17:52:54 51° WNW 17:55:41 10° SSW
Cosmos 1980 Rocket 2.8 17:48:20 10° SSE 17:53:13 31° ESE 17:53:25 31° E
Cosmos 2297 Rocket 2.9 17:48:19 10° NW 17:53:51 54° WSW 17:59:20 10° S
USA 305 2.8 17:50:02 10° WNW 17:54:21 82° NNE 17:55:45 42° ESE
FALCON 9 DEB 3.7 17:51:55 10° W 17:55:01 44° NNW 17:55:34 39° NNE
CZ-4B R/B 3.9 17:53:01 10° NNW 17:55:31 21° WNW 17:57:58 10° WSW
Cosmos 1503 Rocket 3.9 17:53:39 10° NNW 17:58:53 76° ENE 18:03:10 16° SSE
CSL-04 Debris 4.1 17:54:05 10° SSE 17:59:28 67° ENE 18:04:55 10° N
USA 306 2.8 17:56:31 10° WNW 18:00:49 88° NNE 18:01:57 49° ESE
Cosmos 1386 Rocket 4.5 17:55:10 10° N 18:01:38 86° E 18:07:58 10° S
DMSP B5D1-3 4.5 17:59:48 10° NNE 18:04:56 61° ESE 18:10:01 10° S
Cosmos 2058 Rocket 4.4 18:00:59 10° SW 18:05:14 41° WNW 18:09:31 10° N
CZ-2C R/B 3.3 18:02:19 10° SSE 18:08:08 84° WSW 18:13:47 10° NNW
Cosmos 1354 Rocket 3.9 18:05:47 10° NNW 18:11:05 83° ENE 18:14:14 25° SSE
Cosmos 2360 4.1 18:07:11 10° SSW 18:12:49 63° ESE 18:15:32 31° NE
Cosmos 1455 2.2 18:10:46 10° SSW 18:14:32 77° W 18:17:16 18° N
CZ-4C R/B 3.7 18:09:12 10° NNW 18:15:14 33° NNE 18:17:00 30° NE
Cosmos 1992 Rocket 4.0 18:12:53 10° SSW 18:18:05 83° WNW 18:22:43 13° NNE
Cosmos 1709 Rocket 3.9 18:13:46 10° N 18:20:11 74° E 18:26:33 10° SSE
Meteor 2-10 Rocket 3.8 18:15:01 10° SSW 18:20:17 68° WNW 18:25:24 10° N
Cosmos 1076 Rocket 3.7 18:17:31 10° NNW 18:21:46 70° W 18:25:01 17° S
Cosmos 2278 3.7 18:19:01 10° S 18:24:34 57° ESE 18:24:51 57° E
COSMO-SKYMED 1 4.3 18:21:57 10° N 18:25:49 32° WNW 18:29:40 10° SW
Meteor 2-3 Rocket 4.2 18:22:33 10° N 18:27:07 43° NE 18:27:07 43° NE
Ariane Rocket 4.0 18:30:46 32° NNE 18:30:46 32° NNE 18:33:54 10° N
Geosat 3.8 18:29:49 52° NE 18:31:03 84° ESE 18:36:06 10° SSW
Cosmos 2082 4.3 18:28:13 10° NW 18:33:50 57° WSW 18:38:04 18° S
H-2A R/B 2.4 18:29:18 10° S 18:34:42 70° WSW 18:40:10 10° NNW
Cosmos 883 Rocket 4.3 18:29:16 10° S 18:35:26 89° E 18:41:36 10° N
ATLAS 5 CENTAUR R/B 4.2 18:33:08 10° NNW 18:35:30 13° N 18:36:16 13° NNE
ARGOS 3.1 18:36:01 38° S 18:38:13 85° WSW 18:43:42 10° NNW
YAOGAN 1 4.1 18:36:10 10° SSW 18:40:08 35° W 18:44:07 10° NNW
GEOS 3 Rocket 3.7 18:41:31 59° SSE 18:42:30 76° SW 18:47:55 10° NW
Cosmos 2315 Rocket 3.8 18:36:38 10° S 18:42:50 84° E 18:49:05 10° N
SeaSat 1 2.4 18:43:27 79° N 18:43:27 79° N 18:48:09 10° NNW
USA 307 3.7 18:39:56 10° WNW 18:43:36 47° WSW 18:43:36 47° WSW
NOSS 3-4 (A) 3.7 18:40:23 10° NW 18:47:20 75° NE 18:48:36 62° ESE
NOSS 3-4 (C) 3.7 18:40:30 10° NW 18:47:26 75° NE 18:48:40 62° ESE
Cosmos 1812 Rocket 4.4 18:43:25 10° SSW 18:47:41 48° WNW 18:51:57 10° N
Cosmos 2369 4.0 18:42:59 10° SW 18:48:41 67° WNW 18:51:18 33° NNE
USA 308 4.0 18:44:52 10° WNW 18:48:20 42° WSW 18:48:20 42° WSW
DEBRIS 4.0 18:34:09 10° WSW 18:51:04 89° SSE 18:51:52 70° ENE
USA 215 3.4 18:54:35 55° NE 18:55:06 57° NNE 19:01:28 10° NW
NOSS 3-3 (A) 4.3 18:50:57 10° SW 18:56:49 63° NW 18:59:03 41° NNE
NOSS 3-3 (C) 4.3 18:51:04 10° SW 18:56:56 64° NW 18:59:06 41° NNE
MOS 1 Rocket 4.2 18:53:11 10° N 18:57:41 48° WNW 19:02:26 10° SW
Cosmos 2227 Rocket 4.5 18:53:34 10° NW 18:57:44 21° W 19:01:53 10° SSW
Cosmos 2263 Rocket 2.6 18:56:46 10° NNW 19:01:10 53° N 19:01:10 53° N
CZ-4 R/B 4.3 19:02:18 10° SW 19:04:34 15° W 19:06:49 10° NW
ATLAS 2AS CENTAUR R/B 2.7 19:01:56 10° NW 19:09:28 80° NE 19:09:28 80° NE
BREEZE-M R/B 4.2 19:05:24 10° WNW 19:10:20 75° SSW 19:10:34 74° S
Lacrosse 5 3.3 19:08:25 10° NW 19:11:26 31° NNW 19:11:26 31° NNW
Cosmos 1697 Rocket 3.9 19:08:44 10° WSW 19:13:58 39° NW 19:16:32 26° N
Atlas Centaur 2 4.4 19:10:01 10° SW 19:16:15 23° S 19:16:24 23° S
Cosmos 1980 Rocket 3.5 19:31:38 10° SW 19:35:17 35° W 19:35:17 35° W
CZ-4C R/B 3.6 19:57:31 10° NW 20:02:10 47° NW 20:02:10 47° NW
